| time (UTC) | temp F | wind direction | speed knots | gust knots | rain 1hr in | rain 24hr in | rain mn in | humidity % | barometer mb |
| 20260505223826 | 67 | 226 | 4.3 | 5.2 | 0.00 | 0.00 | 0.00 | 63 | 1035.6 |
| 20260505223323 | 67 | 269 | 3.5 | 5.2 | 0.00 | 0.00 | 0.00 | 63 | 1035.8 |
| 20260505222818 | 67 | 306 | 2.6 | 6.1 | 0.00 | 0.00 | 0.00 | 63 | 1035.8 |
| 20260505222314 | 67 | 263 | 5.2 | 7.8 | 0.00 | 0.00 | 0.00 | 63 | 1035.9 |
| 20260505221812 | 67 | 319 | 1.7 | 4.3 | 0.00 | 0.00 | 0.00 | 62 | 1035.8 |
| 20260505221308 | 68 | 209 | 3.5 | 3.5 | 0.00 | 0.00 | 0.00 | 63 | 1035.7 |
| 20260505220806 | 68 | 171 | 1.7 | 5.2 | 0.00 | 0.00 | 0.00 | 62 | 1035.8 |
| 20260505220303 | 68 | 269 | 0.9 | 4.3 | 0.00 | 0.00 | 0.00 | 63 | 1035.7 |
| 20260505215801 | 68 | 223 | 5.2 | 6.1 | 0.00 | 0.00 | 0.00 | 62 | 1035.7 |
| 20260505215258 | 68 | 309 | 3.5 | 5.2 | 0.00 | 0.00 | 0.00 | 62 | 1035.8 |
| 20260505214756 | 69 | 272 | 3.5 | 3.5 | 0.00 | 0.00 | 0.00 | 62 | 1035.6 |
| 20260505214253 | 68 | 210 | 1.7 | 7.0 | 0.00 | 0.00 | 0.00 | 62 | 1035.4 |
| 20260505213750 | 69 | 68 | 0.9 | 5.2 | 0.00 | 0.00 | 0.00 | 62 | 1035.6 |
| 20260505213248 | 69 | 237 | 1.7 | 4.3 | 0.00 | 0.00 | 0.00 | 62 | 1035.4 |
| 20260505212743 | 70 | 228 | 4.3 | 6.1 | 0.00 | 0.00 | 0.00 | 61 | 1035.5 |
| 20260505212241 | 69 | 280 | 2.6 | 2.6 | 0.00 | 0.00 | 0.00 | 61 | 1035.5 |
| 20260505211738 | 70 | 222 | 4.3 | 10.4 | 0.00 | 0.00 | 0.00 | 60 | 1035.2 |
| 20260505211235 | 70 | 250 | 3.5 | 5.2 | 0.00 | 0.00 | 0.00 | 60 | 1035.3 |
| 20260505210731 | 69 | 215 | 1.7 | 5.2 | 0.00 | 0.00 | 0.00 | 60 | 1035.4 |
| 20260505210228 | 69 | 220 | 2.6 | 3.5 | 0.00 | 0.00 | 0.00 | 60 | 1035.6 |
| 20260505205726 | 69 | 207 | 5.2 | 8.7 | 0.00 | 0.00 | 0.00 | 60 | 1035.4 |
| 20260505205224 | 70 | 277 | 1.7 | 2.6 | 0.00 | 0.00 | 0.00 | 59 | 1035.4 |
| 20260505204720 | 70 | 285 | 1.7 | 4.3 | 0.00 | 0.00 | 0.00 | 60 | 1035.5 |
| 20260505204218 | 70 | 251 | 3.5 | 7.0 | 0.00 | 0.00 | 0.00 | 59 | 1035.4 |
| 20260505203715 | 70 | 217 | 2.6 | 6.1 | 0.00 | 0.00 | 0.00 | 59 | 1035.5 |
| 20260505203212 | 71 | 258 | 2.6 | 4.3 | 0.00 | 0.00 | 0.00 | 57 | 1035.4 |
| 20260505202707 | 71 | 216 | 4.3 | 5.2 | 0.00 | 0.00 | 0.00 | 57 | 1035.6 |
| 20260505202204 | 71 | 259 | 3.5 | 6.1 | 0.00 | 0.00 | 0.00 | 56 | 1035.3 |
| 20260505201700 | 72 | 224 | 2.6 | 8.7 | 0.00 | 0.00 | 0.00 | 56 | 1035.6 |
| 20260505201158 | 72 | 232 | 3.5 | 7.8 | 0.00 | 0.00 | 0.00 | 56 | 1035.6 |
| 20260505200656 | 73 | 235 | 3.5 | 9.6 | 0.00 | 0.00 | 0.00 | 55 | 1035.5 |
| 20260505200153 | 73 | 200 | 4.3 | 5.2 | 0.00 | 0.00 | 0.00 | 55 | 1035.7 |
| 20260505195648 | 72 | 236 | 3.5 | 9.6 | 0.00 | 0.00 | 0.00 | 55 | 1035.7 |
| 20260505195146 | 74 | 261 | 2.6 | 6.1 | 0.00 | 0.00 | 0.00 | 53 | 1035.8 |
| 20260505194643 | 73 | 71 | 2.6 | 8.7 | 0.00 | 0.00 | 0.00 | 56 | 1035.8 |
| 20260505194139 | 73 | 217 | 1.7 | 9.6 | 0.00 | 0.00 | 0.00 | 55 | 1035.7 |
| 20260505193636 | 73 | 296 | 3.5 | 7.8 | 0.00 | 0.00 | 0.00 | 56 | 1035.8 |
| 20260505193133 | 74 | 216 | 4.3 | 6.1 | 0.00 | 0.00 | 0.00 | 54 | 1035.7 |
| 20260505192632 | 75 | 229 | 2.6 | 6.1 | 0.00 | 0.00 | 0.00 | 54 | 1035.8 |
| 20260505192129 | 74 | 257 | 2.6 | 3.5 | 0.00 | 0.00 | 0.00 | 54 | 1035.9 |
| 20260505191627 | 76 | 194 | 3.5 | 4.3 | 0.00 | 0.00 | 0.00 | 52 | 1035.9 |
| 20260505191125 | 75 | 208 | 2.6 | 4.3 | 0.00 | 0.00 | 0.00 | 55 | 1036.0 |
| 20260505190620 | 75 | 230 | 4.3 | 5.2 | 0.00 | 0.00 | 0.00 | 55 | 1036.2 |
| 20260505190115 | 74 | 244 | 1.7 | 7.0 | 0.00 | 0.00 | 0.00 | 56 | 1036.3 |
| 20260505185613 | 75 | 293 | 1.7 | 5.2 | 0.00 | 0.00 | 0.00 | 54 | 1036.2 |
| 20260505185109 | 75 | 257 | 1.7 | 5.2 | 0.00 | 0.00 | 0.00 | 54 | 1036.3 |
| 20260505184605 | 76 | 257 | 3.5 | 3.5 | 0.00 | 0.00 | 0.00 | 52 | 1036.1 |
| 20260505184102 | 75 | 249 | 2.6 | 3.5 | 0.00 | 0.00 | 0.00 | 53 | 1036.3 |
| 20260505183559 | 75 | 249 | 2.6 | 4.3 | 0.00 | 0.00 | 0.00 | 55 | 1036.2 |
| 20260505183057 | 75 | 236 | 2.6 | 4.3 | 0.00 | 0.00 | 0.00 | 54 | 1036.1 |
| 20260505182552 | 75 | 240 | 2.6 | 5.2 | 0.00 | 0.00 | 0.00 | 53 | 1036.1 |
| 20260505182049 | 75 | 289 | 3.5 | 5.2 | 0.00 | 0.00 | 0.00 | 53 | 1036.3 |
| 20260505181546 | 76 | 209 | 0.9 | 1.7 | 0.00 | 0.00 | 0.00 | 54 | 1036.3 |
| 20260505181043 | 75 | 269 | 3.5 | 4.3 | 0.00 | 0.00 | 0.00 | 54 | 1036.3 |
| 20260505180539 | 76 | 253 | 4.3 | 4.3 | 0.00 | 0.00 | 0.00 | 52 | 1036.4 |
| 20260505180037 | 75 | 311 | 5.2 | 5.2 | 0.00 | 0.00 | 0.00 | 54 | 1036.2 |
| 20260505175537 | 74 | 217 | 2.6 | 6.1 | 0.00 | 0.00 | 0.00 | 54 | 1036.2 |
| 20260505175034 | 74 | 156 | 1.7 | 3.5 | 0.00 | 0.00 | 0.00 | 55 | 1036.4 |
| 20260505174531 | 74 | 222 | 4.3 | 7.0 | 0.00 | 0.00 | 0.00 | 55 | 1036.5 |
| 20260505174027 | 74 | 173 | 1.7 | 6.1 | 0.00 | 0.00 | 0.00 | 54 | 1036.8 |
| 20260505173524 | 74 | 229 | 3.5 | 7.0 | 0.00 | 0.00 | 0.00 | 55 | 1036.6 |
| 20260505173021 | 74 | 250 | 4.3 | 6.1 | 0.00 | 0.00 | 0.00 | 55 | 1036.7 |
| 20260505172519 | 74 | 200 | 5.2 | 5.2 | 0.00 | 0.00 | 0.00 | 54 | 1036.7 |
| 20260505172015 | 75 | 308 | 2.6 | 3.5 | 0.00 | 0.00 | 0.00 | 55 | 1036.6 |
| 20260505171510 | 74 | 251 | 1.7 | 6.1 | 0.00 | 0.00 | 0.00 | 56 | 1036.5 |
| 20260505171007 | 75 | 214 | 4.3 | 4.3 | 0.00 | 0.00 | 0.00 | 53 | 1036.6 |
| 20260505170504 | 74 | 284 | 1.7 | 3.5 | 0.00 | 0.00 | 0.00 | 55 | 1036.7 |
| 20260505165959 | 75 | 211 | 4.3 | 4.3 | 0.00 | 0.00 | 0.00 | 55 | 1036.8 |
| 20260505165450 | 74 | 224 | 3.5 | 4.3 | 0.00 | 0.00 | 0.00 | 55 | 1036.8 |
| 20260505164945 | 75 | 200 | 1.7 | 4.3 | 0.00 | 0.00 | 0.00 | 54 | 1036.8 |
| 20260505164442 | 73 | 237 | 2.6 | 3.5 | 0.00 | 0.00 | 0.00 | 55 | 1037.0 |
| 20260505163940 | 74 | 252 | 3.5 | 4.3 | 0.00 | 0.00 | 0.00 | 58 | 1036.9 |
| 20260505163438 | 72 | 230 | 1.7 | 5.2 | 0.00 | 0.00 | 0.00 | 59 | 1037.2 |
| 20260505162937 | 73 | 245 | 5.2 | 7.8 | 0.00 | 0.00 | 0.00 | 57 | 1037.1 |
| 20260505162433 | 73 | 282 | 3.5 | 4.3 | 0.00 | 0.00 | 0.00 | 57 | 1037.2 |
| 20260505161930 | 73 | 258 | 1.7 | 2.6 | 0.00 | 0.00 | 0.00 | 58 | 1037.4 |
| 20260505161426 | 74 | 253 | 1.7 | 3.5 | 0.00 | 0.00 | 0.00 | 55 | 1037.4 |
| 20260505160924 | 73 | 309 | 2.6 | 4.3 | 0.00 | 0.00 | 0.00 | 55 | 1037.5 |
| 20260505160422 | 75 | 250 | 0.9 | 1.7 | 0.00 | 0.00 | 0.00 | 57 | 1037.5 |
| 20260505152858 | 71 | 251 | 5.2 | 5.2 | 0.00 | 0.00 | 0.00 | 56 | 1037.8 |
| 20260505152355 | 72 | 217 | 6.1 | 7.8 | 0.00 | 0.00 | 0.00 | 56 | 1037.9 |
| 20260505151855 | 71 | 246 | 3.5 | 5.2 | 0.00 | 0.00 | 0.00 | 56 | 1037.8 |
| 20260505151352 | 71 | 311 | 2.6 | 4.3 | 0.00 | 0.00 | 0.00 | 57 | 1037.9 |
| 20260505150849 | 71 | 302 | 2.6 | 3.5 | 0.00 | 0.00 | 0.00 | 57 | 1038.1 |
| 20260505150347 | 72 | 244 | 3.5 | 3.5 | 0.00 | 0.00 | 0.00 | 57 | 1037.9 |
| 20260505140316 | 67 | 217 | 3.5 | 3.5 | 0.00 | 0.00 | 0.00 | 69 | 1037.7 |
| 20260505130240 | 59 | 200 | 0.0 | 1.7 | 0.00 | 0.00 | 0.00 | 80 | 1037.4 |
| 20260505124731 | 58 | 302 | 1.7 | 2.6 | 0.00 | 0.00 | 0.00 | 79 | 1037.7 |
| 20260505124228 | 58 | 237 | 0.9 | 2.6 | 0.00 | 0.00 | 0.00 | 79 | 1038.0 |
| 20260505123723 | 58 | 259 | 3.5 | 3.5 | 0.00 | 0.00 | 0.00 | 79 | 1037.9 |
| 20260505123220 | 58 | 319 | 0.9 | 1.7 | 0.00 | 0.00 | 0.00 | 81 | 1037.8 |
| 20260505122716 | 58 | 340 | 1.7 | 3.5 | 0.00 | 0.00 | 0.00 | 80 | 1038.0 |
| 20260505122214 | 58 | 295 | 3.5 | 3.5 | 0.00 | 0.00 | 0.00 | 80 | 1038.0 |
| 20260505121710 | 58 | 319 | 1.7 | 2.6 | 0.00 | 0.00 | 0.00 | 81 | 1038.1 |
| 20260505121207 | 57 | 265 | 1.7 | 4.3 | 0.00 | 0.00 | 0.00 | 81 | 1038.1 |
| 20260505120703 | 57 | 309 | 2.6 | 3.5 | 0.00 | 0.00 | 0.00 | 82 | 1038.1 |
| 20260505120159 | 57 | 206 | 1.7 | 2.6 | 0.00 | 0.00 | 0.00 | 82 | 1038.1 |
| 20260505115652 | 57 | 234 | 2.6 | 3.5 | 0.00 | 0.00 | 0.00 | 82 | 1038.1 |
| 20260505115151 | 57 | 265 | 3.5 | 4.3 | 0.00 | 0.00 | 0.00 | 82 | 1038.2 |
| 20260505114648 | 57 | 235 | 1.7 | 2.6 | 0.00 | 0.00 | 0.00 | 82 | 1038.0 |
| 20260505114144 | 57 | 264 | 1.7 | 2.6 | 0.00 | 0.00 | 0.00 | 84 | 1038.1 |
| 20260505113640 | 56 | 306 | 3.5 | 3.5 | 0.00 | 0.00 | 0.00 | 84 | 1038.1 |
| 20260505113137 | 56 | 292 | 1.7 | 2.6 | 0.00 | 0.00 | 0.00 | 86 | 1038.0 |
| 20260505112633 | 55 | 260 | 1.7 | 3.5 | 0.00 | 0.00 | 0.00 | 87 | 1038.2 |
| 20260505112132 | 55 | 297 | 1.7 | 3.5 | 0.00 | 0.00 | 0.00 | 88 | 1037.9 |
| 20260505111626 | 54 | 297 | 2.6 | 3.5 | 0.00 | 0.00 | 0.00 | 89 | 1037.9 |
| 20260505111122 | 53 | 287 | 1.7 | 3.5 | 0.00 | 0.00 | 0.00 | 90 | 1037.7 |
| 20260505110618 | 53 | 260 | 1.7 | 3.5 | 0.00 | 0.00 | 0.00 | 90 | 1037.7 |
| 20260505110115 | 54 | 290 | 1.7 | 2.6 | 0.00 | 0.00 | 0.00 | 90 | 1037.8 |
| 20260505102051 | 51 | 254 | 3.5 | 3.5 | 0.00 | 0.00 | 0.00 | 95 | 1037.4 |
| 20260505101549 | 51 | 300 | 3.5 | 3.5 | 0.00 | 0.00 | 0.00 | 95 | 1037.1 |
| 20260505101044 | 51 | 292 | 2.6 | 3.5 | 0.00 | 0.00 | 0.00 | 95 | 1037.3 |
| 20260505100541 | 51 | 311 | 3.5 | 3.5 | 0.00 | 0.00 | 0.00 | 95 | 1037.0 |
| 20260505100039 | 51 | 330 | 3.5 | 4.3 | 0.00 | 0.00 | 0.00 | 95 | 1037.0 |
| 20260505095535 | 51 | 307 | 2.6 | 2.6 | 0.00 | 0.00 | 0.00 | 95 | 1037.0 |
| 20260505095032 | 51 | 285 | 2.6 | 3.5 | 0.00 | 0.00 | 0.00 | 95 | 1037.1 |
| 20260505094528 | 51 | 320 | 2.6 | 3.5 | 0.00 | 0.00 | 0.00 | 95 | 1037.1 |
| 20260505094025 | 51 | 329 | 1.7 | 2.6 | 0.00 | 0.00 | 0.00 | 95 | 1037.0 |
| 20260505093521 | 51 | 306 | 1.7 | 3.5 | 0.00 | 0.00 | 0.00 | 95 | 1036.9 |
| 20260505093019 | 51 | 291 | 2.6 | 3.5 | 0.00 | 0.00 | 0.00 | 94 | 1037.0 |
| 20260505092516 | 51 | 310 | 3.5 | 4.3 | 0.00 | 0.00 | 0.00 | 94 | 1037.0 |
| 20260505092014 | 51 | 307 | 2.6 | 4.3 | 0.00 | 0.00 | 0.00 | 94 | 1036.8 |
| 20260505091511 | 51 | 300 | 3.5 | 4.3 | 0.00 | 0.00 | 0.00 | 94 | 1037.0 |
| 20260505091009 | 51 | 315 | 3.5 | 3.5 | 0.00 | 0.00 | 0.00 | 94 | 1036.9 |
| 20260505090507 | 51 | 343 | 2.6 | 3.5 | 0.00 | 0.00 | 0.00 | 93 | 1036.8 |
| 20260505090004 | 51 | 318 | 3.5 | 3.5 | 0.00 | 0.00 | 0.00 | 93 | 1036.9 |
| 20260505085502 | 51 | 295 | 3.5 | 4.3 | 0.00 | 0.00 | 0.00 | 94 | 1036.9 |
| 20260505085000 | 51 | 298 | 1.7 | 1.7 | 0.00 | 0.00 | 0.00 | 94 | 1037.0 |
| 20260505084458 | 50 | 323 | 1.7 | 1.7 | 0.00 | 0.00 | 0.00 | 94 | 1037.0 |
| 20260505083955 | 50 | 328 | 2.6 | 2.6 | 0.00 | 0.00 | 0.00 | 94 | 1037.2 |
| 20260505083452 | 50 | 327 | 2.6 | 2.6 | 0.00 | 0.00 | 0.00 | 94 | 1037.0 |
| 20260505082948 | 50 | 341 | 2.6 | 2.6 | 0.00 | 0.00 | 0.00 | 94 | 1037.1 |
| 20260505082444 | 50 | 355 | 0.9 | 1.7 | 0.00 | 0.00 | 0.00 | 93 | 1037.2 |
| 20260505081942 | 50 | 298 | 0.9 | 1.7 | 0.00 | 0.00 | 0.00 | 93 | 1037.2 |
| 20260505081438 | 50 | 321 | 1.7 | 2.6 | 0.00 | 0.00 | 0.00 | 93 | 1037.1 |
| 20260505080935 | 50 | 345 | 1.7 | 1.7 | 0.00 | 0.00 | 0.00 | 92 | 1037.1 |
| 20260505080431 | 50 | 341 | 2.6 | 2.6 | 0.00 | 0.00 | 0.00 | 92 | 1037.0 |
| 20260505075926 | 50 | 348 | 1.7 | 1.7 | 0.00 | 0.00 | 0.00 | 92 | 1037.0 |
| 20260505075424 | 51 | 307 | 1.7 | 1.7 | 0.00 | 0.00 | 0.00 | 91 | 1037.0 |
| 20260505074921 | 51 | 317 | 1.7 | 1.7 | 0.00 | 0.00 | 0.00 | 91 | 1037.0 |
| 20260505074418 | 51 | 308 | 2.6 | 3.5 | 0.00 | 0.00 | 0.00 | 90 | 1037.0 |
| 20260505073915 | 51 | 274 | 1.7 | 2.6 | 0.00 | 0.00 | 0.00 | 90 | 1037.1 |
| 20260505073413 | 51 | 301 | 2.6 | 2.6 | 0.00 | 0.00 | 0.00 | 89 | 1037.1 |
| 20260505072910 | 51 | 301 | 2.6 | 2.6 | 0.00 | 0.00 | 0.00 | 89 | 1036.9 |
| 20260505072406 | 51 | 256 | 2.6 | 2.6 | 0.00 | 0.00 | 0.00 | 89 | 1037.0 |
| 20260505071903 | 51 | 268 | 0.0 | 1.7 | 0.00 | 0.00 | 0.00 | 88 | 1037.1 |
| 20260505071358 | 51 | 295 | 2.6 | 2.6 | 0.00 | 0.00 | 0.00 | 88 | 1037.1 |
| 20260505070857 | 51 | 316 | 1.7 | 1.7 | 0.00 | 0.00 | 0.00 | 89 | 1037.0 |
| 20260505070353 | 51 | 327 | 0.0 | 0.0 | 0.00 | 0.00 | 0.00 | 88 | 1037.1 |
| 20260505065848 | 51 | 294 | 1.7 | 1.7 | 0.00 | 0.00 | 0.00 | 88 | 1037.2 |
| 20260505065345 | 51 | 308 | 1.7 | 2.6 | 0.00 | 0.00 | 0.00 | 88 | 1037.2 |
| 20260505064842 | 51 | 318 | 1.7 | 1.7 | 0.00 | 0.00 | 0.00 | 87 | 1037.3 |
| 20260505064339 | 51 | 300 | 0.0 | 2.6 | 0.00 | 0.00 | 0.00 | 87 | 1037.4 |
| 20260505063837 | 51 | 305 | 2.6 | 2.6 | 0.00 | 0.00 | 0.00 | 87 | 1037.2 |
| 20260505063327 | 51 | 267 | 1.7 | 1.7 | 0.00 | 0.00 | 0.00 | 87 | 1037.3 |
| 20260505062824 | 51 | 314 | 1.7 | 2.6 | 0.00 | 0.00 | 0.00 | 86 | 1037.2 |
| 20260505062321 | 51 | 284 | 1.7 | 2.6 | 0.00 | 0.00 | 0.00 | 86 | 1037.3 |
| 20260505061818 | 51 | 321 | 0.9 | 1.7 | 0.00 | 0.00 | 0.00 | 86 | 1037.3 |
| 20260505061316 | 51 | 265 | 1.7 | 1.7 | 0.00 | 0.00 | 0.00 | 86 | 1037.4 |
| 20260505060813 | 52 | 279 | 1.7 | 1.7 | 0.00 | 0.00 | 0.00 | 85 | 1037.3 |
| 20260505060310 | 51 | 321 | 1.7 | 1.7 | 0.00 | 0.00 | 0.00 | 85 | 1037.4 |
| 20260505055805 | 51 | 248 | 1.7 | 2.6 | 0.00 | 0.00 | 0.00 | 85 | 1037.4 |
| 20260505055303 | 51 | 284 | 1.7 | 1.7 | 0.00 | 0.00 | 0.00 | 84 | 1037.5 |
| 20260505054759 | 52 | 281 | 1.7 | 1.7 | 0.00 | 0.00 | 0.00 | 83 | 1037.6 |
| 20260505054257 | 52 | 281 | 1.7 | 1.7 | 0.00 | 0.00 | 0.00 | 83 | 1037.7 |
| 20260505053755 | 52 | 310 | 1.7 | 1.7 | 0.00 | 0.00 | 0.00 | 81 | 1037.7 |
| 20260505053251 | 52 | 310 | 1.7 | 1.7 | 0.00 | 0.00 | 0.00 | 81 | 1037.7 |
| 20260505052748 | 52 | 310 | 1.7 | 1.7 | 0.00 | 0.00 | 0.00 | 81 | 1037.7 |
| 20260505052245 | 52 | 308 | 2.6 | 2.6 | 0.00 | 0.00 | 0.00 | 81 | 1037.6 |
| 20260505051743 | 51 | 333 | 3.5 | 3.5 | 0.00 | 0.00 | 0.00 | 82 | 1037.6 |
| 20260505051240 | 51 | 314 | 0.0 | 1.7 | 0.00 | 0.00 | 0.00 | 82 | 1037.7 |
| 20260505050738 | 51 | 314 | 0.0 | 1.7 | 0.00 | 0.00 | 0.00 | 82 | 1037.7 |
| 20260505050236 | 52 | 3 | 1.7 | 1.7 | 0.00 | 0.00 | 0.00 | 79 | 1037.8 |
| 20260505041706 | 53 | 348 | 0.9 | 1.7 | 0.00 | 0.00 | 0.00 | 75 | 1038.1 |
| 20260505041203 | 53 | 331 | 1.7 | 2.6 | 0.00 | 0.00 | 0.00 | 76 | 1038.0 |
| 20260505040700 | 53 | 319 | 1.7 | 2.6 | 0.00 | 0.00 | 0.00 | 75 | 1038.0 |
| 20260505040157 | 53 | 296 | 1.7 | 2.6 | 0.00 | 0.00 | 0.00 | 75 | 1038.0 |
| 20260505035654 | 53 | 320 | 0.0 | 1.7 | 0.00 | 0.00 | 0.00 | 75 | 1037.9 |
| 20260505035150 | 53 | 304 | 2.6 | 2.6 | 0.00 | 0.00 | 0.00 | 76 | 1038.0 |
| 20260505034647 | 53 | 313 | 1.7 | 3.5 | 0.00 | 0.00 | 0.00 | 75 | 1038.1 |
| 20260505034144 | 54 | 311 | 1.7 | 1.7 | 0.00 | 0.00 | 0.00 | 75 | 1038.0 |
| 20260505033640 | 54 | 303 | 1.7 | 1.7 | 0.00 | 0.00 | 0.00 | 74 | 1038.0 |
| 20260505033139 | 54 | 335 | 1.7 | 2.6 | 0.00 | 0.00 | 0.00 | 74 | 1038.1 |
| 20260505032637 | 54 | 314 | 1.7 | 3.5 | 0.00 | 0.00 | 0.00 | 73 | 1037.9 |
| 20260505032132 | 54 | 293 | 2.6 | 2.6 | 0.00 | 0.00 | 0.00 | 74 | 1038.0 |
| 20260505031630 | 53 | 345 | 1.7 | 2.6 | 0.00 | 0.00 | 0.00 | 75 | 1038.0 |
| 20260505031125 | 53 | 297 | 1.7 | 2.6 | 0.00 | 0.00 | 0.00 | 75 | 1037.8 |
| 20260505030623 | 53 | 313 | 1.7 | 1.7 | 0.00 | 0.00 | 0.00 | 76 | 1038.0 |
| 20260505030119 | 53 | 292 | 1.7 | 2.6 | 0.00 | 0.00 | 0.00 | 75 | 1038.0 |
| 20260505025615 | 53 | 274 | 1.7 | 2.6 | 0.00 | 0.00 | 0.00 | 76 | 1037.8 |
| 20260505025114 | 53 | 307 | 1.7 | 2.6 | 0.00 | 0.00 | 0.00 | 76 | 1038.0 |
| 20260505024611 | 53 | 301 | 1.7 | 1.7 | 0.00 | 0.00 | 0.00 | 76 | 1038.0 |
| 20260505024108 | 53 | 308 | 3.5 | 3.5 | 0.00 | 0.00 | 0.00 | 77 | 1037.9 |
| 20260505023605 | 53 | 272 | 0.0 | 2.6 | 0.00 | 0.00 | 0.00 | 77 | 1038.0 |
| 20260505023102 | 53 | 301 | 0.0 | 1.7 | 0.00 | 0.00 | 0.00 | 76 | 1038.1 |
| 20260505022600 | 53 | 236 | 0.9 | 2.6 | 0.00 | 0.00 | 0.00 | 77 | 1038.0 |
| 20260505022056 | 53 | 265 | 2.6 | 2.6 | 0.00 | 0.00 | 0.00 | 76 | 1038.0 |
| 20260505021554 | 53 | 312 | 1.7 | 2.6 | 0.00 | 0.00 | 0.00 | 76 | 1038.2 |
| 20260505021050 | 53 | 352 | 0.9 | 2.6 | 0.00 | 0.00 | 0.00 | 76 | 1038.0 |
| 20260505020550 | 53 | 317 | 1.7 | 3.5 | 0.00 | 0.00 | 0.00 | 76 | 1038.2 |
| 20260505020047 | 53 | 254 | 2.6 | 2.6 | 0.00 | 0.00 | 0.00 | 77 | 1038.1 |
| 20260505015544 | 53 | 332 | 2.6 | 2.6 | 0.00 | 0.00 | 0.00 | 76 | 1038.1 |
| 20260505015041 | 53 | 310 | 2.6 | 2.6 | 0.00 | 0.00 | 0.00 | 76 | 1038.1 |
| 20260505014537 | 53 | 300 | 2.6 | 3.5 | 0.00 | 0.00 | 0.00 | 75 | 1037.9 |
| 20260505014035 | 53 | 295 | 2.6 | 2.6 | 0.00 | 0.00 | 0.00 | 76 | 1037.8 |
| 20260505013532 | 53 | 316 | 3.5 | 3.5 | 0.00 | 0.00 | 0.00 | 76 | 1037.8 |
| 20260505013030 | 53 | 322 | 1.7 | 2.6 | 0.00 | 0.00 | 0.00 | 76 | 1038.1 |
| 20260505012528 | 53 | 322 | 1.7 | 2.6 | 0.00 | 0.00 | 0.00 | 76 | 1037.7 |
| 20260505012025 | 54 | 271 | 0.0 | 3.5 | 0.00 | 0.00 | 0.00 | 75 | 1037.8 |
| 20260505011520 | 54 | 286 | 2.6 | 2.6 | 0.00 | 0.00 | 0.00 | 74 | 1037.8 |
| 20260505011017 | 54 | 300 | 1.7 | 3.5 | 0.00 | 0.00 | 0.00 | 74 | 1037.8 |
| 20260505010512 | 54 | 11 | 1.7 | 1.7 | 0.00 | 0.00 | 0.00 | 73 | 1037.7 |
| 20260505010009 | 54 | 327 | 1.7 | 3.5 | 0.00 | 0.00 | 0.00 | 72 | 1037.5 |
| 20260505005505 | 55 | 352 | 1.7 | 3.5 | 0.00 | 0.00 | 0.00 | 72 | 1037.5 |
| 20260505005004 | 55 | 308 | 1.7 | 3.5 | 0.00 | 0.00 | 0.00 | 71 | 1037.4 |
| 20260505004500 | 55 | 285 | 2.6 | 3.5 | 0.00 | 0.00 | 0.00 | 70 | 1037.5 |
| 20260505003956 | 55 | 248 | 2.6 | 3.5 | 0.00 | 0.00 | 0.00 | 69 | 1037.4 |
| 20260505003454 | 55 | 312 | 2.6 | 2.6 | 0.00 | 0.00 | 0.00 | 68 | 1037.3 |
| 20260505002950 | 55 | 273 | 2.6 | 4.3 | 0.00 | 0.00 | 0.00 | 68 | 1037.2 |
| 20260505002446 | 56 | 304 | 2.6 | 4.3 | 0.00 | 0.00 | 0.00 | 67 | 1037.2 |
| 20260505001945 | 56 | 265 | 3.5 | 3.5 | 0.00 | 0.00 | 0.00 | 66 | 1037.1 |
| 20260505001442 | 56 | 320 | 7.0 | 7.8 | 0.00 | 0.00 | 0.00 | 66 | 1036.9 |
| 20260505000939 | 56 | 277 | 3.5 | 3.5 | 0.00 | 0.00 | 0.00 | 65 | 1036.8 |
| 20260505000437 | 57 | 256 | 1.7 | 4.3 | 0.00 | 0.00 | 0.00 | 64 | 1036.7 |
| 20260504235933 | 57 | 307 | 1.7 | 5.2 | 0.00 | 0.00 | 0.00 | 63 | 1036.6 |
| 20260504235431 | 57 | 320 | 2.6 | 3.5 | 0.00 | 0.00 | 0.00 | 63 | 1036.7 |
| 20260504234926 | 57 | 317 | 2.6 | 4.3 | 0.00 | 0.00 | 0.00 | 62 | 1036.6 |
| 20260504234424 | 58 | 252 | 3.5 | 5.2 | 0.00 | 0.00 | 0.00 | 61 | 1036.3 |
| 20260504233920 | 58 | 311 | 2.6 | 5.2 | 0.00 | 0.00 | 0.00 | 60 | 1036.5 |
| 20260504233417 | 58 | 250 | 3.5 | 7.0 | 0.00 | 0.00 | 0.00 | 60 | 1036.4 |
| 20260504232914 | 59 | 202 | 2.6 | 5.2 | 0.00 | 0.00 | 0.00 | 61 | 1036.4 |
| 20260504232411 | 59 | 262 | 4.3 | 4.3 | 0.00 | 0.00 | 0.00 | 61 | 1036.4 |
| 20260504231908 | 59 | 238 | 1.7 | 2.6 | 0.00 | 0.00 | 0.00 | 60 | 1036.3 |
| 20260504231404 | 59 | 273 | 2.6 | 2.6 | 0.00 | 0.00 | 0.00 | 60 | 1036.3 |
| 20260504230900 | 60 | 213 | 5.2 | 5.2 | 0.00 | 0.00 | 0.00 | 59 | 1036.3 |
| 20260504230357 | 60 | 219 | 1.7 | 5.2 | 0.00 | 0.00 | 0.00 | 58 | 1036.2 |
| 20260504225856 | 60 | 211 | 5.2 | 6.1 | 0.00 | 0.00 | 0.00 | 57 | 1036.2 |
| 20260504225352 | 60 | 231 | 3.5 | 3.5 | 0.00 | 0.00 | 0.00 | 57 | 1036.2 |
| 20260504224850 | 61 | 173 | 1.7 | 1.7 | 0.00 | 0.00 | 0.00 | 57 | 1036.1 |
| 20260504224346 | 61 | 229 | 1.7 | 3.5 | 0.00 | 0.00 | 0.00 | 57 | 1036.1 |